| time (UTC) | temp F | wind direction | speed MPH | gust MPH | rain 1hr in | rain 24hr in | rain mn in | humidity % | barometer mb |
| 20260510181518 | 56 | 227 | 4.0 | 13.0 | 0.00 | 0.08 | 0.02 | 80 | 1014.7 |
| 20260510180024 | 55 | 265 | 2.0 | 10.0 | 0.01 | 0.09 | 0.02 | 83 | 1014.9 |
| 20260510174526 | 55 | 235 | 2.0 | 7.0 | 0.01 | 0.10 | 0.02 | 84 | 1014.7 |
| 20260510173028 | 54 | 313 | 2.0 | 6.0 | 0.01 | 0.12 | 0.02 | 89 | 1015.0 |
| 20260510171524 | 53 | 203 | 3.0 | 14.0 | 0.01 | 0.13 | 0.02 | 86 | 1015.0 |
| 20260510170021 | 55 | 232 | 3.0 | 15.0 | 0.00 | 0.13 | 0.01 | 79 | 1015.1 |
| 20260510164506 | 55 | 208 | 8.0 | 15.0 | 0.00 | 0.15 | 0.01 | 79 | 1015.0 |
| 20260510163010 | 55 | 214 | 2.0 | 7.0 | 0.00 | 0.16 | 0.01 | 83 | 1014.8 |
| 20260510161516 | 55 | 187 | 2.0 | 8.0 | 0.00 | 0.17 | 0.01 | 83 | 1014.7 |
| 20260510160029 | 54 | 183 | 2.0 | 8.0 | 0.00 | 0.17 | 0.01 | 84 | 1014.7 |
| 20260510154504 | 55 | 329 | 3.0 | 6.0 | 0.00 | 0.17 | 0.01 | 80 | 1014.7 |
| 20260510153007 | 55 | 196 | 2.0 | 11.0 | 0.00 | 0.18 | 0.01 | 79 | 1014.6 |
| 20260510151518 | 56 | 30 | 1.0 | 8.0 | 0.00 | 0.18 | 0.01 | 82 | 1014.1 |
| 20260510150018 | 55 | 147 | 2.0 | 8.0 | 0.00 | 0.18 | 0.01 | 79 | 1014.1 |
| 20260510144510 | 56 | 205 | 3.0 | 9.0 | 0.00 | 0.18 | 0.01 | 78 | 1014.1 |
| 20260510143009 | 56 | 73 | 4.0 | 11.0 | 0.00 | 0.18 | 0.01 | 82 | 1014.0 |
| 20260510141514 | 55 | 160 | 4.0 | 9.0 | 0.00 | 0.18 | 0.01 | 83 | 1014.3 |
| 20260510140021 | 53 | 195 | 3.0 | 12.0 | 0.00 | 0.18 | 0.01 | 87 | 1014.3 |
| 20260510134520 | 53 | 164 | 4.0 | 9.0 | 0.00 | 0.18 | 0.01 | 86 | 1014.3 |
| 20260510133005 | 52 | 194 | 1.0 | 8.0 | 0.00 | 0.18 | 0.01 | 92 | 1014.3 |
| 20260510131507 | 51 | 110 | 3.0 | 8.0 | 0.00 | 0.18 | 0.01 | 94 | 1013.9 |
| 20260510130014 | 50 | 90 | 3.0 | 7.0 | 0.00 | 0.18 | 0.01 | 96 | 1013.9 |
| 20260510124518 | 49 | 211 | 4.0 | 6.0 | 0.00 | 0.18 | 0.01 | 95 | 1014.1 |
| 20260510123024 | 49 | 108 | 4.0 | 9.0 | 0.00 | 0.18 | 0.01 | 97 | 1013.9 |
| 20260510121508 | 49 | 165 | 2.0 | 4.0 | 0.00 | 0.18 | 0.01 | 97 | 1014.0 |
| 20260510120010 | 48 | 99 | 0.0 | 6.0 | 0.00 | 0.18 | 0.01 | 98 | 1013.9 |
| 20260510114521 | 47 | 71 | 1.0 | 4.0 | 0.00 | 0.18 | 0.01 | 97 | 1013.6 |
| 20260510113029 | 47 | 83 | 0.0 | 5.0 | 0.00 | 0.18 | 0.01 | 97 | 1013.8 |
| 20260510111526 | 46 | 170 | 3.0 | 6.0 | 0.00 | 0.18 | 0.01 | 97 | 1013.7 |
| 20260510110008 | 46 | 67 | 0.0 | 1.0 | 0.00 | 0.18 | 0.01 | 97 | 1013.7 |
| 20260510104512 | 46 | 224 | 0.0 | 2.0 | 0.00 | 0.18 | 0.01 | 97 | 1013.3 |
| 20260510103018 | 46 | 202 | 1.0 | 3.0 | 0.00 | 0.18 | 0.01 | 97 | 1013.0 |
| 20260510101523 | 46 | 208 | 0.0 | 5.0 | 0.00 | 0.18 | 0.01 | 97 | 1012.5 |
| 20260510100024 | 45 | 263 | 2.0 | 7.0 | 0.00 | 0.18 | 0.01 | 97 | 1012.2 |
| 20260510094513 | 45 | 229 | 1.0 | 4.0 | 0.00 | 0.18 | 0.01 | 97 | 1012.1 |
| 20260510093017 | 45 | 162 | 2.0 | 4.0 | 0.00 | 0.18 | 0.01 | 97 | 1012.0 |
| 20260510091526 | 44 | 119 | 1.0 | 3.0 | 0.00 | 0.18 | 0.01 | 97 | 1011.9 |
| 20260510090026 | 45 | 170 | 0.0 | 2.0 | 0.00 | 0.18 | 0.01 | 97 | 1012.3 |
| 20260510083015 | 45 | 111 | 1.0 | 4.0 | 0.00 | 0.18 | 0.01 | 97 | 1012.6 |
| 20260510081529 | 45 | 183 | 2.0 | 5.0 | 0.00 | 0.18 | 0.01 | 97 | 1012.9 |
| 20260510080040 | 44 | 209 | 1.0 | 5.0 | 0.00 | 0.18 | 0.01 | 97 | 1012.7 |
| 20260510074526 | 44 | 156 | 2.0 | 4.0 | 0.00 | 0.18 | 0.01 | 97 | 1012.7 |
| 20260510073025 | 43 | 78 | 0.0 | 2.0 | 0.00 | 0.18 | 0.01 | 97 | 1012.5 |
| 20260510071519 | 43 | 96 | 1.0 | 4.0 | 0.00 | 0.18 | 0.01 | 97 | 1012.6 |
| 20260510070022 | 43 | 336 | 0.0 | 3.0 | 0.00 | 0.18 | 0.01 | 97 | 1012.7 |
| 20260510064524 | 43 | 59 | 0.0 | 3.0 | 0.00 | 0.18 | 0.01 | 97 | 1012.8 |
| 20260510063034 | 42 | 44 | 1.0 | 3.0 | 0.01 | 0.18 | 0.01 | 97 | 1012.7 |
| 20260510061517 | 42 | 37 | 0.0 | 2.0 | 0.01 | 0.18 | 0.01 | 97 | 1013.0 |
| 20260510060034 | 42 | 360 | 0.0 | 2.0 | 0.01 | 0.18 | 0.01 | 97 | 1013.0 |
| 20260510054526 | 42 | 19 | 0.0 | 3.0 | 0.01 | 0.18 | 0.01 | 97 | 1013.0 |
| 20260510053025 | 42 | 50 | 1.0 | 3.0 | 0.00 | 0.17 | 0.00 | 97 | 1013.0 |
| 20260510051512 | 42 | 15 | 1.0 | 4.0 | 0.00 | 0.17 | 0.00 | 97 | 1012.9 |
| 20260510050018 | 42 | 136 | 1.0 | 3.0 | 0.00 | 0.17 | 0.00 | 97 | 1013.3 |
| 20260510044500 | 42 | 61 | 1.0 | 4.0 | 0.00 | 0.17 | 0.00 | 97 | 1013.1 |
| 20260510043009 | 42 | 22 | 1.0 | 9.0 | 0.00 | 0.17 | 0.00 | 97 | 1013.2 |
| 20260510041510 | 42 | 233 | 1.0 | 6.0 | 0.00 | 0.17 | 0.00 | 97 | 1013.1 |
| 20260510040016 | 42 | 46 | 3.0 | 8.0 | 0.00 | 0.17 | 0.00 | 97 | 1013.0 |
| 20260510034522 | 42 | 75 | 2.0 | 9.0 | 0.00 | 0.17 | 0.17 | 97 | 1013.0 |
| 20260510033003 | 42 | 147 | 4.0 | 12.0 | 0.00 | 0.17 | 0.17 | 97 | 1013.0 |
| 20260510031509 | 42 | 117 | 2.0 | 9.0 | 0.00 | 0.17 | 0.17 | 97 | 1013.1 |
| 20260510030016 | 42 | 238 | 1.0 | 14.0 | 0.00 | 0.17 | 0.17 | 97 | 1013.3 |
| 20260510024516 | 42 | 38 | 2.0 | 7.0 | 0.00 | 0.17 | 0.17 | 97 | 1013.2 |
| 20260510023023 | 42 | 67 | 3.0 | 10.0 | 0.00 | 0.17 | 0.17 | 96 | 1013.5 |
| 20260510021514 | 42 | 65 | 3.0 | 8.0 | 0.00 | 0.17 | 0.17 | 96 | 1013.7 |
| 20260510020010 | 42 | 67 | 1.0 | 9.0 | 0.00 | 0.17 | 0.17 | 96 | 1013.6 |
| 20260510014531 | 42 | 54 | 3.0 | 8.0 | 0.00 | 0.17 | 0.17 | 96 | 1013.7 |
| 20260510013020 | 42 | 70 | 3.0 | 8.0 | 0.00 | 0.17 | 0.17 | 96 | 1013.7 |
| 20260510011524 | 42 | 114 | 5.0 | 8.0 | 0.00 | 0.17 | 0.17 | 96 | 1013.8 |
| 20260510010020 | 42 | 74 | 4.0 | 9.0 | 0.00 | 0.17 | 0.17 | 96 | 1013.9 |
| 20260510004512 | 42 | 130 | 2.0 | 9.0 | 0.00 | 0.17 | 0.17 | 96 | 1013.8 |
| 20260510003023 | 42 | 44 | 4.0 | 9.0 | 0.00 | 0.17 | 0.17 | 96 | 1013.4 |
| 20260510001522 | 42 | 56 | 4.0 | 9.0 | 0.00 | 0.17 | 0.17 | 96 | 1013.4 |
| 20260510000004 | 42 | 51 | 3.0 | 9.0 | 0.00 | 0.17 | 0.17 | 96 | 1013.2 |
| 20260509234510 | 42 | 111 | 3.0 | 13.0 | 0.00 | 0.17 | 0.17 | 96 | 1013.0 |
| 20260509233013 | 42 | 92 | 3.0 | 10.0 | 0.00 | 0.17 | 0.17 | 96 | 1013.0 |
| 20260509231519 | 42 | 93 | 5.0 | 10.0 | 0.00 | 0.17 | 0.17 | 95 | 1013.1 |
| 20260509230035 | 42 | 59 | 4.0 | 10.0 | 0.00 | 0.17 | 0.17 | 95 | 1013.3 |
| 20260509224507 | 42 | 67 | 4.0 | 11.0 | 0.00 | 0.17 | 0.17 | 95 | 1013.3 |
| 20260509223011 | 42 | 183 | 2.0 | 11.0 | 0.00 | 0.17 | 0.17 | 95 | 1013.3 |
| 20260509221520 | 42 | 39 | 3.0 | 11.0 | 0.00 | 0.17 | 0.17 | 95 | 1013.4 |
| 20260509220022 | 42 | 128 | 3.0 | 11.0 | 0.00 | 0.17 | 0.17 | 95 | 1013.5 |
| 20260509214524 | 42 | 76 | 4.0 | 9.0 | 0.00 | 0.17 | 0.17 | 95 | 1013.6 |
| 20260509213017 | 42 | 14 | 3.0 | 7.0 | 0.00 | 0.17 | 0.17 | 95 | 1013.7 |
| 20260509211515 | 42 | 77 | 1.0 | 8.0 | 0.00 | 0.17 | 0.17 | 94 | 1013.8 |
| 20260509210021 | 42 | 107 | 1.0 | 10.0 | 0.00 | 0.17 | 0.17 | 94 | 1013.7 |
| 20260509204525 | 43 | 127 | 5.0 | 11.0 | 0.00 | 0.17 | 0.17 | 94 | 1013.7 |
| 20260509203028 | 43 | 102 | 3.0 | 9.0 | 0.00 | 0.17 | 0.17 | 94 | 1013.7 |
| 20260509201516 | 43 | 109 | 3.0 | 10.0 | 0.00 | 0.17 | 0.17 | 94 | 1013.7 |
| 20260509200016 | 43 | 59 | 3.0 | 10.0 | 0.01 | 0.17 | 0.17 | 94 | 1013.8 |
| 20260509194532 | 42 | 130 | 5.0 | 11.0 | 0.03 | 0.17 | 0.17 | 93 | 1013.9 |
| 20260509193026 | 43 | 360 | 3.0 | 10.0 | 0.04 | 0.17 | 0.17 | 94 | 1013.9 |
| 20260509191528 | 43 | 78 | 5.0 | 11.0 | 0.06 | 0.17 | 0.17 | 94 | 1014.1 |
| 20260509190018 | 43 | 87 | 6.0 | 12.0 | 0.06 | 0.16 | 0.16 | 93 | 1014.4 |
| 20260509184527 | 43 | 27 | 4.0 | 9.0 | 0.05 | 0.14 | 0.14 | 94 | 1014.4 |
| 20260509183024 | 43 | 40 | 3.0 | 12.0 | 0.06 | 0.13 | 0.13 | 93 | 1014.5 |